Flag for Slovakia Weather past 2 weeks in Bratislava, Slovakia

Now
64 °F

Clear.


Feels Like: 64 °F
Forecast: 54 / 79 °F
Wind: 3 mph from Northwest

Location: Bratislava Ivanka

Current Time: Jul 31, 2015 at 3:24:18 AM

Latest Report: Jul 31, 2015 at 3:00 AM


Visibility: 10 mi

Pressure: 30.01 "Hg

Humidity: 56%

Dew point: 48 °F

Location of BratislavaLocation

Historic Weather in Bratislava — Graph

°F

Bratislava temperature yesterday

Maximum temperature yesterday: 77 °F (at 3:30 PM)
Minimum temperature yesterday: 59 °F (at 5:30 AM)
Average temperature yesterday: 67 °F

Past Weeks' High & Low Weather Summary

 TemperatureHumidityPressure
High97 °F (Jul 17, 5:00 PM)94% (Jul 27, 3:00 AM)30.12 "Hg (Jul 27, 3:00 AM)
Low57 °F (Jul 27, 2:00 AM)23% (Jul 17, 6:00 PM)29.71 "Hg (Jul 25, 2:00 PM)
Average77 °F55%29.91 "Hg
* Reported Jul 16 2:00 AM — Jul 31 2:00 AM, Bratislava, Weather by CustomWeather, © 2015

Note: Actual official high and low records may vary slightly from our data, if they occured in-between our weather recording intervals... More about our weather records

Advertising

Bratislava weather history for previous 24 hours

 ConditionsComfort  
Time TempWeatherWind HumidityBarometerVisibility
2:00 AM
Fri, Jul 31
64 °FClear.3 mph60%29.98 "Hg10 mi
1:30 AM64 °FClear.No wind60%29.98 "Hg10 mi
1:00 AM66 °FPassing clouds.3 mph56%29.98 "HgN/A
12:00 AM66 °FClear.6 mph64%29.98 "Hg10 mi
11:30 PM
Thu, Jul 30
64 °FClear.8 mph73%29.98 "Hg10 mi
11:00 PM63 °FClear.5 mph73%29.98 "Hg10 mi
10:30 PM64 °FClear.2 mph68%29.98 "Hg10 mi
10:00 PM64 °FClear.3 mph64%29.98 "Hg10 mi
9:30 PM66 °FSunny.6 mph60%29.98 "Hg10 mi
9:00 PM68 °FSunny.10 mph56%29.95 "Hg10 mi
8:30 PM70 °FSunny.12 mph50%29.95 "Hg10 mi
8:00 PM70 °FSunny.9 mph50%29.95 "Hg10 mi
7:30 PM72 °FSunny.12 mph47%29.95 "Hg10 mi
7:00 PM72 °FSunny.14 mph47%29.95 "Hg10 mi
6:30 PM73 °FPassing clouds.9 mph33%29.92 "HgN/A
6:00 PM77 °FPassing clouds.8 mph30%29.95 "HgN/A
5:30 PM75 °FPassing clouds.6 mph34%29.95 "HgN/A
5:00 PM75 °FPassing clouds.9 mph31%29.95 "HgN/A
4:30 PM75 °FPassing clouds.5 mph31%29.95 "HgN/A
4:00 PM75 °FSunny.7 mph29%29.95 "Hg10 mi
3:30 PM77 °FSunny.5 mph30%29.95 "Hg10 mi
3:00 PM75 °FSunny.5 mph31%29.95 "Hg10 mi
2:30 PM73 °FPassing clouds.7 mph38%29.95 "HgN/A
2:00 PM72 °FSunny.3 mph44%29.98 "Hg10 mi
1:30 PM72 °FSunny.3 mph41%29.98 "Hg10 mi
1:00 PM72 °FPassing clouds.6 mph38%29.98 "HgN/A
12:30 PM72 °FSunny.5 mph38%29.98 "Hg10 mi
12:00 PM68 °FPassing clouds.8 mph49%29.98 "HgN/A
11:30 AM68 °FPassing clouds.12 mph53%29.98 "HgN/A
11:00 AM70 °FPassing clouds.7 mph50%29.98 "HgN/A
10:30 AM66 °FPassing clouds.8 mph60%29.98 "HgN/A
10:00 AM64 °FPassing clouds.7 mph64%29.98 "HgN/A
9:30 AM63 °FPassing clouds.8 mph68%29.98 "HgN/A
9:00 AM63 °FPassing clouds.8 mph73%29.98 "HgN/A
8:30 AM61 °FPassing clouds.7 mph77%29.98 "HgN/A
8:00 AM61 °FPassing clouds.3 mph77%29.98 "HgN/A
7:30 AM59 °FPassing clouds.2 mph82%29.98 "HgN/A
7:00 AM59 °FPassing clouds.6 mph82%29.95 "HgN/A
6:30 AM59 °FPassing clouds.8 mph82%29.95 "HgN/A
5:30 AM59 °FLight rain. Passing clouds.13 mph82%29.95 "HgN/A
5:00 AM61 °FLight rain. Passing clouds.12 mph77%29.92 "HgN/A
4:30 AM63 °FPassing clouds.12 mph77%29.92 "HgN/A
4:00 AM63 °FPassing clouds.13 mph83%29.92 "HgN/A
3:30 AM63 °FLight rain. Low clouds.9 mph88%29.92 "HgN/A
3:00 AM63 °FLight rain. Mostly cloudy.10 mph94%29.89 "HgN/A
Weather by CustomWeather, © 2015

See weather overviewHow to use our weather pages